Location: Brasstown
(34.8693°N, 83.8104°W)
Time: 15:59:22
(UTC-04:00)

ISS - Visible Passes

Search period start: 31 October 2020 00:00
Search period end: 09 November 2020 23:00
Orbit: 417 x 420 km, 51.6° (Epoch: 31 October)

Date Brightness Start Highest point End Pass type
(mag) Time Alt. Az. Time Alt. Az. Time Alt. Az.
06 Nov -1.4 06:15:00 10° NNW 06:17:16 17° NNE 06:19:33 10° ENE visible
07 Nov -1.0 05:27:58 10° N 05:29:15 12° NNE 05:30:33 10° NE visible
08 Nov -2.8 06:15:29 10° NW 06:18:40 42° NE 06:21:50 10° ESE visible
09 Nov -1.9 05:29:40 21° N 05:30:46 25° NE 05:33:35 10° E visible
